This is the latest recevied weather packets stored in our database for station/object IK2ILW-6. If no packets are shown the sender has not sent any weather packets the latest 10 day(s).
| Time | Temp. | Humidity | Pressure | Rain* | Wind** | Luminosity | Snow |
|---|---|---|---|---|---|---|---|
| 1777727196 | 10° C | 71% | 1025.7 hPa | 0 mm | - | 768 W/m² | - |
| 1777726884 | 9.44° C | 74% | 1025.7 hPa | 0 mm | - | 795 W/m² | - |
| 1777726588 | 9.44° C | 71% | 1025.7 hPa | 0 mm | - | 796 W/m² | - |
| 1777725996 | 9.44° C | 75% | 1025.8 hPa | 0 mm | - | 780 W/m² | - |
| 1777725700 | 10° C | 73% | 1025.8 hPa | 0 mm | - | 802 W/m² | - |
| 1777725384 | 9.44° C | 74% | 1025.9 hPa | 0 mm | - | 784 W/m² | - |
| 1777725089 | 9.44° C | 75% | 1025.8 hPa | 0 mm | - | 809 W/m² | - |
| 1777724794 | 8.89° C | 71% | 1025.8 hPa | 0 mm | - | 849 W/m² | - |
| 1777724183 | 10° C | 71% | 1025.9 hPa | 0 mm | - | 838 W/m² | - |
| 1777723887 | 10° C | 71% | 1025.9 hPa | 0 mm | - | 838 W/m² | - |
| 1777723590 | 10° C | 69% | 1025.9 hPa | 0 mm | - | 837 W/m² | - |
| 1777723295 | 10° C | 72% | 1025.9 hPa | 0 mm | - | 851 W/m² | - |
| 1777722698 | 8.89° C | 75% | 1026.1 hPa | 0 mm | - | 846 W/m² | - |
| 1777722394 | 8.89° C | 74% | 1026 hPa | 0 mm | - | 837 W/m² | - |
| 1777722097 | 9.44° C | 75% | 1026.2 hPa | 0 mm | - | 902 W/m² | - |
| 1777721801 | 8.33° C | 75% | 1026.3 hPa | 0 mm | - | 896 W/m² | - |
| 1777721486 | 8.89° C | 73% | 1026.2 hPa | 0 mm | - | 893 W/m² | - |
| 1777721189 | 8.89° C | 75% | 1026.2 hPa | 0 mm | - | 902 W/m² | - |
| 1777720891 | 8.89° C | 73% | 1026.2 hPa | 0 mm | - | 889 W/m² | - |
| 1777720595 | 8.89° C | 77% | 1026.3 hPa | 0 mm | - | 911 W/m² | - |
| 1777720282 | 8.89° C | 72% | 1026.4 hPa | 0 mm | - | 902 W/m² | - |
| 1777719986 | 8.33° C | 73% | 1026.4 hPa | 0 mm | - | 902 W/m² | - |
| 1777719698 | 8.89° C | 73% | 1026.5 hPa | 0 mm | - | 884 W/m² | - |
| 1777719403 | 9.44° C | 70% | 1026.6 hPa | 0 mm | - | 886 W/m² | - |
| 1777719090 | 8.89° C | 76% | 1026.6 hPa | 0 mm | - | 912 W/m² | - |
* Rain latest hour (hover to see other rain measurements)
** Current wind speed in m/s (hover to see current wind gust speed)